timestamp,wind_dir_avg,wind_spd_max_dir,wind_spd_avg,wind_spd_gust,battery_voltage,lat,long
2018-12-30 00:00:00+00:00,94.0,99.0,5.86,8.2,,47.59359,-54.27349
2018-12-30 00:10:00+00:00,83.0,83.0,7.92,9.85,,47.59359,-54.27349
2018-12-30 00:20:00+00:00,84.0,85.0,6.35,7.71,,47.59359,-54.27349
2018-12-30 00:30:00+00:00,86.0,84.0,7.01,8.46,,47.59359,-54.27349
2018-12-30 00:40:00+00:00,94.0,101.0,5.04,6.4,,47.59359,-54.27349
2018-12-30 00:50:00+00:00,91.0,80.0,5.12,7.36,,47.59359,-54.27349
2018-12-30 01:00:00+00:00,89.0,76.0,4.94,8.28,,47.59359,-54.27349
2018-12-30 01:10:00+00:00,92.0,81.0,5.43,6.77,,47.59359,-54.27349
2018-12-30 01:20:00+00:00,93.0,89.0,6.39,11.76,,47.59359,-54.27349
2018-12-30 01:30:00+00:00,92.0,83.0,5.83,7.75,,47.59359,-54.27349
2018-12-30 01:40:00+00:00,92.0,115.0,5.12,6.92,,47.59359,-54.27349
2018-12-30 01:50:00+00:00,86.0,91.0,7.02,8.24,,47.59359,-54.27349
2018-12-30 02:00:00+00:00,85.0,83.0,6.59,8.95,,47.59359,-54.27349
2018-12-30 02:10:00+00:00,80.0,83.0,6.24,7.01,,47.59359,-54.27349
2018-12-30 02:20:00+00:00,82.0,84.0,7.78,12.89,,47.59359,-54.27349
2018-12-30 02:30:00+00:00,80.0,81.0,7.14,7.88,,47.59359,-54.27349
2018-12-30 02:40:00+00:00,77.0,84.0,6.56,7.76,,47.59359,-54.27349
2018-12-30 02:50:00+00:00,76.0,72.0,6.52,7.84,,47.59359,-54.27349
2018-12-30 03:00:00+00:00,71.0,68.0,6.88,7.81,,47.59359,-54.27349
2018-12-30 03:10:00+00:00,73.0,71.0,7.59,8.53,,47.59359,-54.27349
2018-12-30 03:20:00+00:00,77.0,80.0,8.24,13.36,,47.59359,-54.27349
2018-12-30 03:30:00+00:00,71.0,76.0,8.97,13.02,,47.59359,-54.27349
2018-12-30 03:40:00+00:00,62.0,60.0,8.01,8.94,,47.59359,-54.27349
2018-12-30 03:50:00+00:00,63.0,67.0,7.16,7.98,,47.59359,-54.27349
2018-12-30 04:00:00+00:00,64.0,65.0,8.01,8.95,,47.59359,-54.27349
2018-12-30 04:10:00+00:00,71.0,75.0,8.54,11.28,,47.59359,-54.27349
2018-12-30 04:20:00+00:00,66.0,67.0,8.25,9.15,,47.59359,-54.27349
2018-12-30 04:30:00+00:00,62.0,67.0,8.28,10.71,,47.59359,-54.27349
2018-12-30 04:40:00+00:00,59.0,62.0,8.08,8.74,,47.59359,-54.27349
2018-12-30 04:50:00+00:00,56.0,58.0,8.73,9.87,,47.59359,-54.27349
2018-12-30 05:00:00+00:00,55.0,53.0,7.99,8.71,,47.59359,-54.27349
2018-12-30 05:10:00+00:00,55.0,61.0,8.21,8.91,,47.59359,-54.27349
2018-12-30 05:20:00+00:00,61.0,64.0,8.14,8.9,,47.59359,-54.27349
2018-12-30 05:30:00+00:00,59.0,57.0,8.44,9.33,,47.59359,-54.27349
2018-12-30 05:40:00+00:00,56.0,54.0,7.93,8.85,,47.59359,-54.27349
2018-12-30 05:50:00+00:00,58.0,58.0,7.78,8.32,,47.59359,-54.27349
2018-12-30 06:00:00+00:00,51.0,58.0,8.7,9.8,,47.59359,-54.27349
2018-12-30 06:10:00+00:00,37.0,36.0,7.63,8.85,,47.59359,-54.27349
2018-12-30 06:20:00+00:00,35.0,37.0,7.4,8.02,,47.59359,-54.27349
2018-12-30 06:30:00+00:00,37.0,41.0,7.37,7.96,,47.59359,-54.27349
2018-12-30 06:40:00+00:00,39.0,39.0,7.26,8.07,,47.59359,-54.27349
2018-12-30 06:50:00+00:00,38.0,39.0,7.52,8.51,,47.59359,-54.27349
2018-12-30 07:00:00+00:00,38.0,37.0,9.02,9.67,,47.59359,-54.27349
2018-12-30 07:10:00+00:00,37.0,46.0,8.39,9.67,,47.59359,-54.27349
2018-12-30 07:20:00+00:00,30.0,31.0,9.51,10.49,,47.59359,-54.27349
2018-12-30 07:30:00+00:00,33.0,35.0,8.45,9.28,,47.59359,-54.27349
2018-12-30 07:40:00+00:00,28.0,26.0,8.52,9.59,,47.59359,-54.27349
2018-12-30 07:50:00+00:00,31.0,31.0,8.41,9.25,,47.59359,-54.27349
2018-12-30 08:00:00+00:00,28.0,27.0,7.52,8.5,,47.59359,-54.27349
2018-12-30 08:10:00+00:00,23.0,20.0,7.4,8.76,,47.59359,-54.27349
2018-12-30 08:20:00+00:00,22.0,24.0,7.64,9.07,,47.59359,-54.27349
2018-12-30 08:30:00+00:00,21.0,18.0,6.7,8.04,,47.59359,-54.27349
2018-12-30 08:40:00+00:00,16.0,13.0,7.12,8.16,,47.59359,-54.27349
2018-12-30 08:50:00+00:00,24.0,28.0,6.5,7.2,,47.59359,-54.27349
2018-12-30 09:00:00+00:00,0.0,0.0,6.82,7.28,,47.59359,-54.27349
2018-12-30 09:10:00+00:00,357.0,357.0,6.54,7.23,,47.59359,-54.27349
2018-12-30 09:20:00+00:00,355.0,355.0,7.35,8.36,,47.59359,-54.27349
2018-12-30 09:30:00+00:00,358.0,357.0,8.83,9.74,,47.59359,-54.27349
2018-12-30 09:40:00+00:00,354.0,351.0,8.62,9.31,,47.59359,-54.27349
2018-12-30 09:50:00+00:00,358.0,359.0,9.18,10.32,,47.59359,-54.27349
2018-12-30 10:00:00+00:00,356.0,356.0,8.87,9.83,,47.59359,-54.27349
2018-12-30 10:10:00+00:00,359.0,356.0,9.45,10.4,,47.59359,-54.27349
2018-12-30 10:20:00+00:00,4.0,20.0,8.72,10.02,,47.59359,-54.27349
2018-12-30 10:30:00+00:00,1.0,1.0,9.76,10.81,,47.59359,-54.27349
2018-12-30 10:40:00+00:00,6.0,5.0,9.24,10.29,,47.59359,-54.27349
2018-12-30 10:50:00+00:00,12.0,25.0,8.94,9.98,,47.59359,-54.27349
2018-12-30 11:00:00+00:00,17.0,13.0,7.89,9.82,,47.59359,-54.27349
2018-12-30 11:10:00+00:00,18.0,30.0,8.7,10.54,,47.59359,-54.27349
2018-12-30 11:20:00+00:00,16.0,20.0,7.11,8.03,,47.59359,-54.27349
2018-12-30 11:30:00+00:00,12.0,10.0,7.21,8.2,,47.59359,-54.27349
2018-12-30 11:40:00+00:00,10.0,15.0,6.32,7.66,,47.59359,-54.27349
2018-12-30 11:50:00+00:00,5.0,10.0,6.46,7.15,,47.59359,-54.27349
2018-12-30 12:00:00+00:00,7.0,9.0,7.08,8.11,,47.59359,-54.27349
2018-12-30 12:10:00+00:00,3.0,1.0,7.55,8.22,,47.59359,-54.27349
2018-12-30 12:20:00+00:00,5.0,5.0,7.4,8.41,,47.59359,-54.27349
2018-12-30 12:30:00+00:00,0.0,2.0,7.66,8.52,,47.59359,-54.27349
2018-12-30 12:40:00+00:00,356.0,359.0,7.77,8.47,,47.59359,-54.27349
2018-12-30 12:50:00+00:00,2.0,3.0,8.1,8.89,,47.59359,-54.27349
2018-12-30 13:00:00+00:00,2.0,358.0,8.02,9.27,,47.59359,-54.27349
2018-12-30 13:10:00+00:00,355.0,356.0,8.91,9.33,,47.59359,-54.27349
2018-12-30 13:20:00+00:00,0.0,356.0,7.79,8.5,,47.59359,-54.27349
2018-12-30 13:30:00+00:00,2.0,5.0,8.66,9.96,,47.59359,-54.27349
2018-12-30 13:40:00+00:00,0.0,358.0,7.17,7.99,,47.59359,-54.27349
2018-12-30 13:50:00+00:00,0.0,358.0,7.42,8.96,,47.59359,-54.27349
2018-12-30 14:00:00+00:00,0.0,5.0,7.41,8.21,,47.59359,-54.27349
2018-12-30 14:10:00+00:00,2.0,0.0,8.22,9.38,,47.59359,-54.27349
2018-12-30 14:20:00+00:00,8.0,1.0,6.86,7.93,,47.59359,-54.27349
2018-12-30 14:30:00+00:00,7.0,4.0,8.03,9.16,,47.59359,-54.27349
2018-12-30 14:40:00+00:00,8.0,5.0,8.37,9.03,,47.59359,-54.27349
2018-12-30 14:50:00+00:00,10.0,4.0,7.6,8.81,,47.59359,-54.27349
2018-12-30 15:00:00+00:00,9.0,4.0,8.76,9.99,,47.59359,-54.27349
2018-12-30 15:10:00+00:00,11.0,15.0,8.05,9.6,,47.59359,-54.27349
2018-12-30 15:20:00+00:00,8.0,13.0,8.0,9.74,,47.59359,-54.27349
2018-12-30 15:30:00+00:00,7.0,7.0,8.7,9.75,,47.59359,-54.27349
2018-12-30 15:40:00+00:00,10.0,2.0,8.9,10.33,,47.59359,-54.27349
2018-12-30 15:50:00+00:00,8.0,5.0,7.71,8.92,,47.59359,-54.27349
2018-12-30 16:00:00+00:00,5.0,1.0,8.78,9.9,,47.59359,-54.27349
2018-12-30 16:10:00+00:00,6.0,17.0,7.85,9.28,,47.59359,-54.27349
2018-12-30 16:20:00+00:00,15.0,17.0,7.98,9.1,,47.59359,-54.27349
2018-12-30 16:30:00+00:00,2.0,4.0,9.4,10.6,,47.59359,-54.27349
2018-12-30 16:40:00+00:00,13.0,14.0,9.21,10.5,,47.59359,-54.27349
2018-12-30 16:50:00+00:00,0.0,0.0,8.08,8.89,,47.59359,-54.27349
2018-12-30 17:00:00+00:00,4.0,4.0,8.39,10.46,,47.59359,-54.27349
2018-12-30 17:10:00+00:00,358.0,358.0,9.63,10.93,,47.59359,-54.27349
2018-12-30 17:20:00+00:00,351.0,348.0,8.87,9.83,,47.59359,-54.27349
2018-12-30 17:30:00+00:00,354.0,357.0,9.55,10.72,,47.59359,-54.27349
2018-12-30 17:40:00+00:00,354.0,353.0,8.75,9.52,,47.59359,-54.27349
2018-12-30 17:50:00+00:00,352.0,347.0,9.19,10.42,,47.59359,-54.27349
2018-12-30 18:00:00+00:00,358.0,0.0,9.24,10.13,,47.59359,-54.27349
2018-12-30 18:10:00+00:00,349.0,347.0,11.23,12.4,,47.59359,-54.27349
2018-12-30 18:20:00+00:00,357.0,0.0,8.53,9.45,,47.59359,-54.27349
2018-12-30 18:30:00+00:00,356.0,358.0,10.86,12.98,,47.59359,-54.27349
2018-12-30 18:40:00+00:00,354.0,357.0,11.66,13.69,,47.59359,-54.27349
2018-12-30 18:50:00+00:00,352.0,349.0,9.89,11.22,,47.59359,-54.27349
2018-12-30 19:00:00+00:00,355.0,352.0,8.38,9.47,,47.59359,-54.27349
2018-12-30 19:10:00+00:00,347.0,342.0,9.18,11.08,,47.59359,-54.27349
2018-12-30 19:20:00+00:00,350.0,346.0,9.16,10.31,,47.59359,-54.27349
2018-12-30 19:30:00+00:00,347.0,340.0,9.14,10.33,,47.59359,-54.27349
2018-12-30 19:40:00+00:00,347.0,342.0,9.24,11.09,,47.59359,-54.27349
2018-12-30 19:50:00+00:00,350.0,350.0,10.01,12.04,,47.59359,-54.27349
2018-12-30 20:00:00+00:00,354.0,350.0,10.69,11.73,,47.59359,-54.27349
2018-12-30 20:10:00+00:00,351.0,343.0,10.35,12.63,,47.59359,-54.27349
2018-12-30 20:20:00+00:00,352.0,356.0,9.44,10.62,,47.59359,-54.27349
2018-12-30 20:30:00+00:00,351.0,356.0,9.08,10.78,,47.59359,-54.27349
2018-12-30 20:40:00+00:00,347.0,356.0,9.39,10.96,,47.59359,-54.27349
2018-12-30 20:50:00+00:00,348.0,347.0,10.47,12.07,,47.59359,-54.27349
2018-12-30 21:00:00+00:00,348.0,351.0,9.13,10.64,,47.59359,-54.27349
2018-12-30 21:10:00+00:00,349.0,351.0,9.96,11.16,,47.59359,-54.27349
2018-12-30 21:20:00+00:00,355.0,355.0,10.53,11.89,,47.59359,-54.27349
2018-12-30 21:30:00+00:00,352.0,358.0,9.34,10.57,,47.59359,-54.27349
2018-12-30 21:40:00+00:00,354.0,359.0,9.83,11.77,,47.59359,-54.27349
2018-12-30 21:50:00+00:00,352.0,351.0,9.19,10.89,,47.59359,-54.27349
2018-12-30 22:00:00+00:00,356.0,0.0,10.61,11.53,,47.59359,-54.27349
2018-12-30 22:10:00+00:00,4.0,0.0,10.65,12.4,,47.59359,-54.27349
2018-12-30 22:20:00+00:00,357.0,1.0,11.25,13.25,,47.59359,-54.27349
2018-12-30 22:30:00+00:00,0.0,356.0,10.59,13.22,,47.59359,-54.27349
2018-12-30 22:40:00+00:00,356.0,351.0,11.05,12.77,,47.59359,-54.27349
2018-12-30 22:50:00+00:00,7.0,13.0,10.13,13.35,,47.59359,-54.27349
2018-12-30 23:00:00+00:00,8.0,12.0,11.43,14.12,,47.59359,-54.27349
2018-12-30 23:10:00+00:00,7.0,5.0,10.64,13.83,,47.59359,-54.27349
2018-12-30 23:20:00+00:00,10.0,15.0,10.87,12.14,,47.59359,-54.27349
2018-12-30 23:30:00+00:00,15.0,18.0,12.01,13.82,,47.59359,-54.27349
2018-12-30 23:40:00+00:00,18.0,18.0,13.24,15.63,,47.59359,-54.27349
2018-12-30 23:50:00+00:00,11.0,12.0,11.56,12.94,,47.59359,-54.27349
